McComb, MS

2:40 AM CST on December 16, 2017 (GMT -0600)
McComb-Pike County-Lewis

Weather History for KMCB - March, 2013

Change the Weather History Date:

Friday, March 15, 2013

  Actual Average Record
Temperature  
Mean Temperature 57 °F -  
Max Temperature 75 °F 71 °F 86 °F (2008)
Min Temperature 39 °F 47 °F 25 °F (1988)
Degree Days  
Heating Degree Days 8    
Growing Degree Days 7 (Base 50)    
Moisture  
Dew Point 39 °F    
Average Humidity 53    
Maximum Humidity 93    
Minimum Humidity 25    
Precipitation  
Precipitation 0.00 in - - ()
Sea Level Pressure  
Sea Level Pressure 30.20 in    
Wind  
Wind Speed 5 mph (SSW)    
Max Wind Speed 13 mph    
Max Gust Speed 20 mph    
Visibility 10 miles    
Events      
Averages and records for this station are not official NWS values.
T = Trace of Precipitation, MM = Missing Value Source: NWS Daily Summary

Daily Weather History Graph

Daily Weather History Graph

Search for Another Location

Airport or City:

Trip Planner

Search our weather history database for the weather conditions in past years. The results will help you decide how hot, cold, wet, or windy it might be!

Date:

Astronomy

Mar. 15, 2013 Rise Set
Actual Time 7:11 AM CDT 7:10 PM CDT
Civil Twilight 6:47 AM CDT 7:34 PM CDT
Nautical Twilight 6:19 AM CDT 8:02 PM CDT
Astronomical Twilight 5:51 AM CDT 8:30 PM CDT
Moon 9:18 AM CDT (3/15) 11:05 PM CDT (3/15)
Length of Visible Light 12h 46m
Length of Day
11h 58m
Waxing Crescent, 15% of the Moon is Illuminated
Mar 15
Waxing Crescent
Mar 19
First Quarter
Mar 27
Full
Apr 2
Last Quarter
Apr 10
New

Hourly Weather History & Observations

Time (CDT) Temp. Windchill Dew Point Humidity Pressure Visibility Wind Dir Wind Speed Gust Speed Precip Events Conditions
12:53 AM 46.9 °F - 37.9 °F 71% 30.28 in 10.0 mi SSE 3.5 mph - N/A   Clear
1:53 AM 44.1 °F 42.5 °F 37.9 °F 79% 30.27 in 10.0 mi SSW 3.5 mph - N/A   Clear
2:53 AM 45.0 °F - 37.0 °F 74% 30.26 in 10.0 mi Calm Calm - N/A   Clear
3:53 AM 46.9 °F - 39.0 °F 74% 30.24 in 10.0 mi Calm Calm - N/A   Clear
4:53 AM 45.0 °F - 39.0 °F 80% 30.23 in 10.0 mi Calm Calm - N/A   Clear
5:53 AM 39.9 °F - 37.0 °F 89% 30.24 in 10.0 mi Calm Calm - N/A   Clear
6:53 AM 39.0 °F - 37.0 °F 93% 30.26 in 10.0 mi Calm Calm - N/A   Clear
7:53 AM 39.9 °F - 37.9 °F 93% 30.27 in 9.0 mi Calm Calm - N/A   Clear
8:53 AM 50.0 °F - 44.1 °F 80% 30.29 in 10.0 mi Calm Calm - N/A   Clear
9:53 AM 57.9 °F - 45.0 °F 62% 30.29 in 10.0 mi WSW 10.4 mph 16.1 mph N/A   Clear
10:53 AM 64.0 °F - 37.9 °F 38% 30.27 in 10.0 mi SSW 8.1 mph - N/A   Clear
11:53 AM 69.1 °F - 34.0 °F 27% 30.25 in 10.0 mi SW 8.1 mph - N/A   Clear
12:53 PM 72.0 °F - 36.0 °F 27% 30.22 in 10.0 mi SW 9.2 mph 16.1 mph N/A   Partly Cloudy
1:26 PM 71.6 °F - 37.4 °F 29% 30.20 in 8.0 mi SSW 11.5 mph 19.6 mph N/A   Mostly Cloudy
1:40 PM 71.6 °F - 37.4 °F 29% 30.19 in 10.0 mi South 11.5 mph 16.1 mph N/A   Mostly Cloudy
1:53 PM 73.0 °F - 36.0 °F 26% 30.17 in 10.0 mi Variable 6.9 mph - N/A   Partly Cloudy
2:53 PM 73.9 °F - 37.9 °F 27% 30.14 in 10.0 mi SSW 12.7 mph - N/A   Clear
3:53 PM 75.0 °F - 37.0 °F 25% 30.11 in 10.0 mi SSW 9.2 mph 17.3 mph N/A   Clear
4:53 PM 75.0 °F - 37.0 °F 25% 30.10 in 10.0 mi SW 9.2 mph - N/A   Clear
5:53 PM 73.0 °F - 37.9 °F 28% 30.11 in 10.0 mi SSW 8.1 mph - N/A   Clear
6:53 PM 70.0 °F - 41.0 °F 35% 30.12 in 10.0 mi SSW 6.9 mph - N/A   Clear
7:53 PM 64.9 °F - 42.1 °F 43% 30.12 in 10.0 mi SSW 5.8 mph - N/A   Clear
8:53 PM 63.0 °F - 43.0 °F 48% 30.12 in 10.0 mi SSW 8.1 mph - N/A   Clear
9:53 PM 60.1 °F - 43.0 °F 53% 30.12 in 10.0 mi SSW 6.9 mph - N/A   Clear
10:53 PM 59.0 °F - 44.1 °F 58% 30.13 in 10.0 mi SSW 8.1 mph - N/A   Clear
11:53 PM 57.0 °F - 46.0 °F 67% 30.12 in 10.0 mi SSW 8.1 mph - N/A   Clear